Location: Newark
(40.3500°N, 15.2333°E)
Time: 17:49:50
(UTC+00:00)

Altair - Pass Details

Date: 24 January 2020
Orbit: 1502 x 1682 km, 47.2° (Epoch: 22 February)

Event Time Altitude Azimuth Distance (km) Brightness Sun altitude
Rises 10:17:17 0° 272° (W) 4,917 10.0 29.1°
Reaches altitude 10° 10:20:32 10° 277° (W) 3,939 9.5 29.2°
Maximum altitude 10:30:34 59° 356° (N) 1,891 8.1 29.6°
Drops below altitude 10° 10:40:31 10° 75° (ENE) 3,908 9.7 30.0°
Sets 10:43:44 0° 79° (E) 4,877 10.1 30.0°
